RH
94 96 95 96 97 97 98 99 99 100 99 98 97 97 97 97 98 98 96 97 97 98 96 94 94 92 94 94 92 92 65 34 26 35 41 30 26 27 19 22 30 31 26 19 19 20 19 20 21 21 19 18 21 24 22 21 20 21 21 23 25 24 23 22 21 21 21 19 15 15 17 16 16 25 32 30 36 48 50 53 62 62 65 69 61 67 79 84
97 97 96 96 98 99 100 99 98 98 100 99 97 98 98 95 94 93 93 93 95 94 93 93 94 95 93 92 95 84 57 43 43 47 40 30 34 30 23 28 27 23 22 23 27 29 26 26 29 28 24 21 21 21 21 21 18 20 25 24 22 21 21 19 19 20 20 18 16 16 18 16 16 28 32 25 26 30 34 53 71 68 74 84 79 80 84 87
96 94 94 94 97 99 97 97 96 97 99 98 99 99 98 96 91 92 92 90 92 92 91 93 94 95 89 94 94 68 56 53 38 35 29 21 24 21 23 25 20 21 25 26 29 30 31 32 30 31 29 23 25 24 21 22 19 19 22 23 21 18 20 19 18 20 19 20 17 16 20 19 18 25 25 24 27 24 21 44 72 73 79 91 89 88 88 91
94 93 94 93 97 99 97 99 98 98 100 99 100 99 96 95 92 92 92 91 92 91 92 92 94 94 89 95 82 55 58 46 22 27 29 22 21 18 20 21 22 25 25 25 25 28 32 33 29 30 29 28 35 31 23 24 20 19 19 19 21 18 19 20 19 19 19 21 16 18 23 20 20 21 19 25 32 32 25 32 53 64 78 92 93 91 90 92
94 95 98 98 98 99 98 99 99 99 100 99 99 99 95 94 95 93 91 93 92 91 93 91 92 94 93 90 70 56 51 25 18 34 35 33 28 21 21 20 23 23 23 24 22 24 26 29 29 30 31 32 37 30 25 26 18 19 19 16 19 20 17 18 20 19 18 21 18 20 21 19 25 23 19 27 34 35 33 32 40 53 74 90 92 91 91 93
94 96 100 99 99 100 99 99 100 99 99 98 97 98 96 93 94 94 93 93 93 94 93 93 93 92 95 83 59 53 38 15 23 32 31 40 33 24 25 22 22 22 23 23 18 19 21 26 27 31 37 35 35 30 28 30 22 20 20 17 19 20 17 16 19 20 19 22 20 20 18 19 28 26 19 26 30 29 33 37 43 55 71 83 87 90 92 94
97 98 100 100 100 100 100 100 100 100 99 99 99 97 96 95 92 92 93 93 94 95 93 94 93 91 95 75 55 60 51 30 27 26 29 41 36 25 23 22 24 23 24 24 20 20 21 25 26 32 38 34 35 35 32 33 29 26 24 21 20 18 18 17 16 18 20 21 20 19 18 20 24 22 19 21 22 22 28 38 50 58 67 79 86 90 92 93
99 100 100 100 100 100 100 100 99 100 100 100 100 96 95 95 92 92 93 93 92 93 93 94 90 92 93 73 63 73 64 42 31 33 37 40 35 24 19 23 25 24 26 26 21 19 21 23 24 29 33 31 32 32 32 33 30 29 29 27 24 21 20 20 18 18 21 20 19 19 19 19 20 18 17 18 18 19 24 35 51 59 66 79 85 89 91 91
97 99 100 100 100 100 100 100 100 100 100 100 98 95 95 94 94 94 94 93 91 91 91 91 91 93 90 76 71 64 44 35 40 42 37 35 30 21 19 21 22 25 27 25 20 17 18 21 23 23 26 27 26 26 28 31 29 28 30 30 29 26 24 25 21 18 20 20 19 21 20 19 19 17 17 18 16 16 19 26 44 59 67 77 81 86 89 90
96 99 100 100 99 100 100 100 100 99 99 99 98 98 97 94 92 94 97 96 93 92 90 91 93 95 89 76 64 45 28 34 46 39 28 29 26 21 21 17 20 25 27 27 21 17 17 18 20 19 22 24 24 26 29 33 30 25 28 30 30 29 28 25 21 20 19 18 20 20 21 20 18 19 19 23 23 18 14 18 40 59 64 70 76 81 84 86
97 100 99 99 97 97 99 100 99 98 98 99 100 95 86 81 78 80 90 98 98 95 91 91 94 94 91 84 65 41 28 31 37 32 26 29 27 24 22 17 19 23 28 30 23 19 17 16 18 19 22 23 23 25 27 29 26 23 27 29 30 30 29 27 23 23 19 16 20 19 19 19 17 19 17 22 29 25 16 13 33 56 60 65 72 76 80 81
95 99 99 98 95 96 99 99 97 97 100 98 92 80 70 68 67 67 75 86 96 97 91 89 94 95 92 96 82 49 33 35 35 32 34 35 32 30 26 21 20 19 26 31 29 23 18 16 16 19 22 21 23 25 24 23 22 23 27 30 33 31 27 28 24 22 19 16 17 17 18 18 16 17 15 18 28 32 27 15 25 50 58 61 69 72 75 76
93 95 98 97 95 97 98 97 96 97 98 89 75 67 65 62 61 64 63 63 71 81 86 87 93 95 93 91 71 44 37 41 40 34 35 36 33 30 28 26 22 19 22 27 29 23 19 18 17 20 21 21 24 23 20 21 23 26 28 31 33 32 29 26 24 21 20 17 15 16 20 21 16 14 17 24 32 34 31 24 32 51 58 61 67 70 72 73
92 93 95 96 96 97 97 98 97 97 91 77 65 63 61 57 57 59 55 51 52 61 76 89 94 94 96 83 50 36 42 44 43 36 33 35 34 29 26 27 24 21 22 24 25 20 20 19 17 20 20 22 23 21 23 26 33 33 29 33 35 34 29 24 26 23 21 18 14 17 21 20 16 13 16 26 37 36 26 34 52 59 60 62 65 69 70 71
92 94 96 97 97 96 95 97 98 96 85 69 61 61 56 54 56 52 48 51 55 59 71 91 99 94 101 87 44 33 41 43 42 34 31 36 39 36 31 28 25 22 22 23 23 20 20 17 19 23 22 24 22 23 31 33 44 45 33 37 41 35 28 23 27 25 21 18 14 18 21 19 17 14 15 20 33 38 27 36 61 66 62 63 64 66 68 69
92 96 99 96 95 95 94 96 98 92 77 63 59 58 52 51 55 52 53 58 61 66 75 90 98 93 95 78 42 35 43 44 39 29 29 34 39 42 38 32 25 22 21 20 20 20 20 19 24 28 23 24 25 29 35 36 51 56 42 42 42 36 32 27 26 22 20 18 16 18 20 19 17 15 18 17 25 36 30 33 58 72 67 65 64 65 66 68
92 97 98 95 94 93 94 98 96 83 68 60 58 54 48 50 55 53 60 68 68 75 79 84 94 94 80 55 39 46 48 42 37 31 29 31 35 39 39 35 27 22 19 18 18 19 20 21 25 31 28 28 34 37 37 38 47 50 46 48 46 40 37 34 28 21 19 19 18 18 19 18 17 17 20 20 26 33 29 28 48 67 69 66 64 64 65 66
93 98 96 94 94 94 96 99 92 78 67 60 57 55 49 50 54 57 65 69 70 80 81 78 88 82 57 40 42 49 46 42 39 33 30 30 31 36 40 38 31 25 21 20 20 20 22 26 29 35 35 33 36 39 37 36 40 44 48 55 57 48 42 40 33 24 21 20 19 19 20 18 17 20 21 24 31 31 25 25 37 53 63 65 63 62 63 65
94 98 95 94 95 94 98 98 88 75 67 60 55 53 48 50 57 60 62 62 67 72 66 67 74 63 42 39 45 46 44 42 38 34 31 30 29 32 38 36 30 24 23 27 27 25 25 29 34 37 39 37 34 36 34 33 36 38 40 48 56 52 46 42 35 28 23 21 21 20 20 19 18 21 22 25 31 29 24 24 30 41 51 58 62 63 62 64
94 96 95 95 95 95 98 93 81 71 68 63 57 57 61 70 81 77 67 66 67 61 54 58 66 63 54 52 51 47 44 39 38 37 30 29 30 27 28 28 28 27 29 30 28 29 29 34 41 40 39 36 32 34 33 32 32 29 31 37 40 42 43 39 34 30 25 26 28 23 21 20 19 21 22 23 28 29 26 25 27 33 42 48 54 60 64 65
97 95 96 96 94 95 93 84 76 71 67 64 61 70 78 81 88 85 78 78 69 59 62 61 58 61 59 53 51 48 50 48 44 39 29 26 28 24 25 27 29 34 36 32 32 33 32 37 41 38 35 33 32 34 33 31 29 29 32 34 34 36 36 33 32 29 25 30 35 29 27 27 23 23 23 22 26 28 26 25 25 30 38 43 44 47 57 64
97 95 95 95 95 95 87 77 74 70 66 64 64 73 76 73 75 71 74 86 77 62 65 64 59 62 57 50 49 48 54 59 50 40 31 25 24 24 28 30 31 35 35 37 44 45 39 37 34 33 32 31 33 34 33 31 31 33 34 36 39 35 31 31 32 30 25 32 40 35 31 30 27 26 25 23 24 25 26 27 26 29 37 45 45 42 50 60
96 96 95 95 97 94 83 74 71 69 66 64 67 73 72 73 74 64 68 87 86 69 63 63 62 67 64 49 44 48 52 56 54 45 34 28 28 27 28 31 33 34 33 35 40 42 43 40 31 30 30 28 30 32 32 33 35 37 36 40 42 34 32 36 34 31 27 28 34 33 32 32 29 28 26 24 23 21 28 34 34 33 35 42 47 46 50 56
98 99 96 96 99 91 77 71 68 69 68 64 68 72 72 75 73 67 74 86 89 79 64 58 57 62 61 43 37 49 52 51 52 46 34 31 32 29 28 31 34 36 35 34 36 37 39 34 26 26 28 27 28 31 32 34 40 44 38 37 39 34 33 35 33 31 28 26 27 31 36 33 29 29 26 25 25 21 23 33 37 38 37 40 46 48 52 55
98 99 97 98 102 85 69 68 68 70 70 64 67 71 72 74 70 69 78 78 74 70 56 47 52 51 42 36 39 45 49 50 49 41 32 30 31 30 31 31 32 38 39 35 35 37 35 29 25 26 28 28 30 32 34 36 43 47 41 34 33 32 32 32 31 32 36 34 27 31 42 39 33 31 25 23 26 23 21 27 31 34 36 40 46 47 49 51
97 99 98 100 101 81 68 72 70 71 72 66 70 75 72 72 71 70 76 80 70 56 45 39 43 41 31 36 41 40 50 52 41 36 33 30 29 28 33 35 32 37 40 36 36 37 34 29 27 29 31 32 32 33 34 34 40 46 42 34 30 31 32 32 30 33 45 43 29 29 41 47 45 37 30 28 26 24 22 24 28 30 34 39 44 45 43 43
99 100 98 99 97 86 82 82 75 75 76 71 74 79 73 70 72 67 69 81 69 46 43 42 39 37 32 37 41 47 61 56 42 36 30 29 29 26 34 41 36 34 34 36 42 41 34 31 31 31 31 33 33 32 32 31 38 45 40 33 32 31 32 33 31 34 41 39 31 28 29 42 48 37 30 31 29 27 23 21 23 25 30 37 41 45 45 43
100 94 89 86 83 80 83 84 82 80 76 74 78 79 74 70 71 71 69 65 50 39 45 45 38 35 36 41 46 55 58 52 52 46 28 28 32 27 34 41 38 35 30 33 44 42 31 29 32 31 31 35 33 30 29 29 35 37 32 29 30 30 31 30 31 34 34 35 37 32 27 41 54 43 30 28 28 28 26 22 19 19 23 29 35 41 45 47
93 81 75 74 70 71 77 83 85 79 74 77 82 76 72 70 67 77 80 57 42 46 49 47 44 43 48 53 56 59 56 51 55 50 36 32 32 29 33 38 38 38 35 33 38 36 28 29 33 31 31 33 31 26 25 27 29 27 26 27 26 28 30 30 34 34 35 45 46 34 29 40 54 49 33 30 31 27 26 23 19 17 18 21 27 33 42 53
80 68 68 71 69 71 77 80 77 75 76 80 81 72 70 77 78 88 87 60 49 55 52 53 54 53 63 70 70 67 64 64 57 51 48 41 42 44 37 38 41 43 48 45 41 36 29 33 36 31 30 29 28 27 25 24 24 24 25 25 27 32 32 34 38 34 40 57 50 32 30 34 45 47 32 30 36 30 25 23 20 18 16 18 24 29 36 54
69 62 66 69 68 71 76 75 70 73 79 80 79 72 68 74 86 95 80 55 57 64 63 66 64 64 76 83 85 77 70 74 66 59 61 54 59 63 50 52 58 57 63 60 55 50 38 39 41 35 33 29 26 29 28 26 25 25 27 28 35 42 40 38 39 40 53 60 44 30 31 33 39 43 33 29 32 29 25 23 22 20 17 16 22 28 34 49
62 58 61 66 66 68 72 72 71 73 78 79 80 82 77 72 83 91 73 58 68 71 68 75 73 76 85 87 92 87 76 78 70 63 67 63 67 68 59 65 67 66 75 71 65 62 52 46 41 37 37 29 28 35 32 28 27 27 32 37 44 50 54 56 50 51 57 50 36 29 31 35 35 33 32 28 24 22 23 23 21 21 20 17 18 26 34 48
58 54 56 62 62 64 68 70 72 74 78 78 81 90 89 82 82 82 76 75 76 68 66 77 77 78 87 91 91 84 75 74 68 64 68 68 74 74 66 66 61 61 76 79 73 69 67 60 43 37 40 31 29 38 40 38 35 33 35 42 49 51 61 70 61 54 54 46 35 27 30 38 32 26 26 22 19 18 16 19 20 18 20 19 17 23 33 47
53 50 55 59 58 62 68 70 72 75 77 76 81 87 86 86 82 75 78 80 73 70 74 81 82 81 87 91 86 74 70 72 69 66 69 72 81 85 77 70 61 58 72 82 77 73 81 79 55 41 40 34 30 32 36 39 37 32 28 33 44 47 52 62 59 54 53 49 37 29 41 48 34 29 28 16 15 17 14 15 17 17 17 17 16 19 31 45
51 49 57 60 59 66 71 69 71 73 73 76 86 90 89 95 90 81 82 80 75 81 81 77 84 91 91 87 80 67 63 69 69 71 77 78 83 89 83 75 67 63 72 83 79 71 78 77 55 40 36 32 32 30 27 32 37 34 25 28 40 39 37 46 50 50 52 53 44 37 50 53 35 30 30 22 18 16 15 17 17 18 18 17 18 19 28 43
55 57 62 63 65 72 71 69 71 70 73 82 90 91 93 93 85 84 85 76 74 83 86 83 88 97 96 86 78 66 60 67 70 77 84 77 76 80 75 72 67 60 65 78 80 73 72 67 50 41 37 30 30 31 26 30 42 44 33 31 37 29 27 40 47 46 48 57 59 48 43 39 28 24 22 22 25 20 19 21 19 21 21 20 22 21 27 40
57 64 69 67 69 71 68 69 68 66 78 92 94 93 91 82 76 88 91 77 74 84 94 97 92 92 95 91 85 72 69 77 75 78 82 75 75 75 69 68 64 57 56 63 72 69 62 61 51 40 37 33 30 28 25 25 35 47 46 39 37 31 30 38 45 46 49 61 65 55 45 34 29 35 30 20 22 24 23 22 20 21 21 22 23 22 26 37
62 70 75 71 70 68 66 68 65 69 87 96 96 97 93 80 74 82 83 73 75 87 97 101 92 88 93 97 93 78 78 88 83 80 82 77 77 71 63 63 59 55 53 50 61 66 56 58 59 48 45 50 45 35 35 33 26 32 42 43 49 55 51 44 45 50 55 65 69 60 56 45 32 39 37 21 18 22 21 22 22 20 19 20 23 22 24 33
68 78 83 73 67 67 67 66 67 81 96 96 96 97 92 86 80 78 75 71 79 92 99 98 92 91 93 95 94 84 83 89 85 87 87 79 77 71 62 59 53 54 53 48 58 67 62 65 71 64 59 64 61 53 58 56 37 28 34 44 56 63 61 55 56 56 52 63 75 65 62 61 46 38 34 25 22 20 17 19 19 19 20 20 22 23 23 30
77 86 89 74 67 69 66 67 78 94 99 95 97 96 91 89 82 76 76 76 82 92 97 98 95 95 95 92 92 90 88 88 86 92 93 77 73 76 68 57 52 55 54 50 54 60 64 73 79 72 63 61 61 62 63 56 47 44 43 53 61 55 56 60 60 56 47 62 84 73 67 74 60 43 31 24 25 23 19 21 19 19 22 21 22 23 24 28
88 90 85 72 68 70 68 77 92 99 100 96 95 94 87 82 79 77 78 81 83 82 86 95 97 96 96 93 93 91 91 90 86 92 97 83 74 80 76 61 53 53 55 60 59 58 66 79 86 79 68 62 56 56 56 46 46 53 49 52 54 49 59 70 69 63 50 58 78 72 68 70 57 49 41 29 29 29 24 25 26 26 26 25 25 23 23 27
94 88 78 71 70 68 76 96 99 95 103 98 88 88 81 78 87 87 82 85 87 83 86 93 96 96 96 98 98 93 92 92 86 89 98 88 75 75 74 68 58 49 59 72 66 61 74 89 92 84 74 65 52 45 47 43 48 58 57 54 50 51 65 74 79 79 63 58 68 66 62 57 51 59 57 40 36 37 35 37 40 42 42 40 36 29 24 25
96 86 72 71 73 70 80 97 95 93 101 92 82 84 78 79 93 89 80 83 84 88 96 96 96 97 94 95 96 90 90 91 86 89 95 86 73 64 62 70 67 57 68 84 78 73 84 92 91 87 78 65 54 51 52 48 52 65 71 65 59 59 60 60 71 79 71 67 69 70 70 58 53 63 57 42 39 40 44 52 52 54 57 54 50 42 31 26
102 96 86 73 66 74 86 92 95 96 92 84 83 84 75 78 86 80 76 76 74 87 99 93 90 91 89 95 97 91 89 91 88 88 92 90 78 62 60 72 76 72 76 81 79 82 90 91 89 92 90 76 66 69 71 67 68 77 81 73 65 63 58 58 69 72 71 72 67 72 80 63 50 55 46 37 37 35 41 53 58 60 60 58 57 52 40 30
91 89 91 72 58 78 96 96 97 97 91 90 92 88 81 79 74 70 73 72 71 80 85 82 87 93 95 97 94 87 83 87 91 89 90 93 79 61 64 74 79 82 75 65 68 80 92 95 90 92 98 92 82 79 81 82 78 79 80 70 63 69 67 64 69 68 72 78 74 76 79 59 44 43 38 36 40 37 36 43 55 62 60 59 61 60 53 39
81 76 83 76 67 82 93 91 89 89 93 98 95 90 90 83 70 65 67 69 72 72 72 85 96 94 93 89 80 78 74 76 88 91 92 98 86 67 63 65 72 77 68 59 65 79 95 99 90 86 88 83 75 72 75 80 78 74 73 64 59 65 67 62 64 71 77 81 78 71 66 57 49 43 41 42 40 37 36 39 48 57 61 62 66 69 65 51
82 81 82 75 74 84 87 86 89 89 92 97 95 94 93 86 77 71 64 64 70 69 75 95 95 78 76 79 79 82 77 71 82 88 91 97 88 70 60 59 68 73 64 62 68 80 98 101 91 90 88 78 72 71 69 73 77 74 69 64 59 61 64 60 59 70 75 73 72 69 63 61 55 45 43 43 38 37 38 37 39 47 58 64 68 76 77 62
68 75 81 70 73 86 80 77 89 93 92 94 97 95 89 85 84 80 73 70 70 69 76 88 82 69 71 77 83 90 85 77 81 80 83 92 86 75 70 67 69 69 66 68 69 76 93 98 92 95 92 82 80 78 72 73 79 77 70 66 62 60 63 59 54 65 71 66 69 70 64 61 52 44 42 39 36 36 34 34 41 51 61 64 66 79 83 70
74 82 88 77 80 90 85 81 89 93 92 94 93 90 86 88 88 81 77 80 80 76 75 79 75 71 74 77 84 93 89 84 86 78 75 84 83 81 86 81 71 71 76 82 78 74 84 92 92 93 90 84 84 82 83 87 88 81 75 72 65 62 65 58 53 63 68 65 68 65 62 64 55 43 40 37 37 42 42 48 56 58 63 64 66 81 86 73
91 94 94 90 91 95 95 93 91 91 92 90 83 80 84 89 89 83 81 86 92 86 77 77 77 74 78 81 85 91 83 78 86 81 74 82 81 80 89 88 80 81 86 93 89 77 80 89 87 88 91 90 89 88 89 92 91 88 84 79 70 67 71 65 61 67 65 61 66 65 67 68 54 44 51 54 52 53 51 53 56 55 61 65 67 81 89 76
96 95 94 98 98 94 92 93 92 93 93 91 85 82 86 88 86 89 88 82 86 88 79 77 81 80 82 84 83 83 75 70 76 74 69 76 76 72 78 79 79 86 89 93 94 83 84 90 83 84 93 90 87 92 92 86 84 85 85 84 79 74 74 71 69 71 61 50 54 61 63 61 53 58 76 78 70 65 55 49 49 52 60 65 67 78 89 84
98 96 92 94 95 94 92 91 92 88 84 88 89 85 86 86 83 90 93 81 76 80 76 74 82 87 89 85 76 69 63 60 63 60 58 63 63 62 68 66 68 81 86 90 96 92 88 88 83 85 93 88 84 92 93 85 82 81 79 84 89 85 82 81 80 78 70 57 56 59 58 62 72 84 93 91 86 84 74 59 52 52 57 61 65 75 88 91
Wind_Speed
16 17 17 18 18 19 19 19 20 21 21 21 21 21 22 22 22 22 23 23 23 23 23 24 24 25 26 27 28 29 32 31 29 26 15 10 10 6 6 5 6 8 9 10 10 7 5 3 3 3 2 3 2 2 2 2 2 2 3 6 8 7 7 7 7 7 6 5 7 6 6 6 4 2 1 2 8 9 8 6 3 4 6 5 6 21 31 30
17 17 18 18 19 19 20 20 20 21 21 22 21 22 22 22 22 22 22 23 23 23 23 23 23 24 25 26 27 28 31 29 24 18 10 10 7 1 2 1 4 7 7 7 10 9 5 3 5 5 3 2 2 2 3 2 3 4 4 6 10 8 7 8 9 7 6 7 7 7 7 7 5 5 3 4 6 9 9 5 4 5 6 7 11 22 27 28
17 17 18 19 19 20 20 21 21 21 22 22 22 22 22 22 22 22 22 22 22 22 22 22 23 23 24 25 26 27 28 21 12 6 7 12 9 5 3 2 4 5 6 7 9 9 4 4 5 3 3 2 2 2 4 3 4 4 4 8 10 6 6 7 10 9 8 8 8 8 6 6 5 5 3 6 8 9 9 7 6 4 3 6 9 17 23 25
18 18 18 19 20 21 21 21 21 22 22 22 23 22 22 23 22 22 22 22 21 21 21 21 21 22 23 24 25 25 19 9 3 1 7 10 8 7 5 3 4 3 5 7 9 7 4 4 3 1 3 2 3 0 4 4 3 3 6 10 7 6 6 8 9 11 10 8 8 6 6 7 8 5 3 8 8 5 7 8 9 8 9 11 9 13 20 21
19 19 20 20 20 21 21 22 22 22 23 23 23 23 23 23 23 23 22 21 21 20 20 20 20 21 22 23 24 19 10 3 1 3 7 8 6 5 4 3 3 4 6 8 8 6 4 3 3 3 2 1 1 1 3 4 1 2 7 10 6 7 7 8 10 11 10 8 7 7 8 7 6 4 5 9 9 6 6 8 12 12 14 15 13 14 16 16
19 20 21 21 21 22 22 22 23 23 23 23 23 23 23 23 22 23 21 21 21 19 19 19 18 19 21 23 20 10 2 1 1 5 8 7 5 5 5 4 4 5 6 9 8 6 5 4 3 2 2 0 3 4 3 3 0 3 7 5 3 6 7 7 9 9 8 8 7 7 6 5 7 7 8 10 10 7 7 9 12 13 17 20 17 15 16 16
20 21 21 22 22 22 23 23 23 23 24 24 23 23 23 23 22 22 22 21 20 19 18 17 17 17 19 21 14 3 1 4 5 5 8 5 4 5 7 6 5 6 8 10 9 6 4 5 2 2 3 1 3 4 4 4 2 4 5 4 4 5 5 5 7 9 9 9 9 6 4 6 10 10 9 12 10 8 8 8 10 13 17 20 18 16 17 18
21 22 22 22 23 23 23 24 24 24 24 24 23 22 21 21 20 20 20 20 20 19 17 16 16 15 17 17 8 2 1 5 5 4 5 4 3 4 7 6 5 8 9 9 6 3 3 5 2 0 2 1 2 1 3 3 3 4 4 4 5 3 4 5 5 7 9 9 8 7 8 10 12 10 10 14 13 11 11 8 9 13 15 17 17 17 15 16
21 22 22 22 22 23 24 24 25 25 25 24 23 22 21 20 19 20 20 20 19 16 15 14 13 12 13 10 3 2 4 3 1 3 7 7 4 3 5 6 7 10 9 7 4 2 2 2 2 1 1 3 1 2 3 1 2 2 2 4 4 5 6 6 5 6 8 7 6 9 11 11 9 7 11 15 14 14 14 11 9 11 14 15 16 16 15 15
21 22 22 23 23 24 24 25 26 26 26 25 23 22 22 21 22 23 21 20 17 14 12 11 10 9 9 6 4 1 3 2 3 7 13 13 8 5 5 7 10 9 8 7 4 2 2 0 2 1 2 2 1 3 3 2 2 3 3 4 4 6 6 4 4 6 6 5 8 12 12 12 6 4 9 10 10 13 14 14 12 12 14 14 14 14 15 15
22 22 22 22 23 24 24 25 25 26 26 24 24 24 24 25 26 25 21 17 15 11 9 7 6 5 5 3 3 2 5 7 10 14 17 15 12 11 11 11 11 9 7 6 6 3 1 2 2 1 1 1 2 3 3 2 3 5 3 4 6 5 5 4 6 7 4 4 8 11 11 9 3 7 12 7 6 10 13 15 14 15 14 14 14 14 13 14
21 22 23 22 23 24 24 25 25 26 26 25 25 25 27 27 25 24 21 15 11 7 5 4 2 3 4 1 4 5 9 11 12 13 17 18 16 15 15 15 13 11 8 4 7 6 3 1 3 2 2 1 3 2 2 3 4 4 2 2 6 5 5 6 6 6 3 4 6 8 6 8 8 15 13 6 5 5 10 15 13 14 14 14 15 13 12 13
21 23 23 23 23 24 25 24 25 25 25 25 25 26 27 25 22 21 17 10 6 3 2 2 2 3 1 2 5 6 9 9 11 16 19 21 19 14 12 14 14 13 10 7 10 8 6 4 2 1 3 1 2 2 2 3 3 3 2 2 4 5 6 7 5 5 4 4 6 7 6 10 16 20 11 6 7 6 8 11 10 12 11 11 12 10 11 12
22 22 22 23 23 24 25 25 26 25 24 25 24 25 26 21 20 16 9 5 4 1 1 2 2 2 1 5 7 8 11 9 12 20 21 21 20 13 9 11 13 12 10 10 11 10 7 5 1 1 2 2 3 4 4 4 2 2 3 2 2 3 5 5 5 6 6 5 6 8 9 10 16 19 11 8 7 9 9 9 9 11 11 10 10 10 10 9
22 22 22 23 23 24 25 25 26 24 24 24 23 26 24 18 15 10 5 4 4 3 1 3 3 2 1 7 8 10 12 9 15 22 21 19 17 10 9 10 9 9 8 9 10 9 5 2 2 1 2 2 0 3 4 4 3 1 3 3 2 5 5 3 4 8 9 6 5 10 10 10 15 15 9 8 8 9 9 8 9 11 12 12 11 11 11 10
22 22 23 23 24 24 24 25 25 23 23 22 23 25 20 15 11 5 4 5 6 4 2 3 5 2 1 5 8 10 7 8 18 23 18 17 13 8 10 11 6 4 5 7 9 7 3 3 1 1 1 2 1 1 3 3 4 2 2 3 2 4 3 3 4 5 8 4 3 8 10 10 11 10 7 8 10 10 9 8 9 10 11 12 11 11 11 10
22 22 23 23 24 24 24 25 23 22 21 21 24 24 17 12 6 1 3 7 8 3 2 2 5 3 2 4 6 6 7 14 21 22 17 14 10 7 7 6 4 2 2 5 5 2 1 1 1 1 1 0 2 3 2 3 5 2 1 2 2 2 2 2 4 3 4 5 6 7 10 13 8 5 8 9 10 10 10 9 9 10 10 11 10 11 11 10
23 23 23 23 24 24 24 24 22 21 19 20 23 20 15 10 2 3 2 9 9 1 2 0 3 3 3 5 6 7 12 20 23 20 14 10 8 6 3 2 4 6 5 4 2 1 1 1 1 0 2 1 3 4 3 4 2 1 1 1 2 2 2 2 3 3 2 3 7 7 12 16 9 5 7 9 9 10 12 11 9 10 11 11 11 11 10 10
24 24 24 24 24 24 24 23 21 19 17 20 21 13 10 8 1 2 3 9 6 1 1 2 2 2 5 7 9 12 17 19 18 13 7 7 7 5 2 1 3 3 3 3 3 2 1 1 2 1 3 3 3 3 5 2 3 2 1 1 2 3 3 4 5 3 4 1 6 8 13 14 10 7 8 8 8 10 12 10 9 9 10 11 11 11 11 11
24 24 24 24 23 23 23 21 18 16 15 20 20 11 9 8 3 2 5 5 1 3 4 4 1 1 6 7 10 14 15 9 6 5 5 7 5 4 3 1 4 5 3 0 3 2 2 1 2 4 2 1 2 3 4 1 2 2 3 2 2 3 4 4 5 6 5 3 5 7 11 11 8 8 8 8 7 9 11 10 10 9 9 10 11 12 13 13
24 24 24 23 23 22 21 19 15 13 12 16 18 9 4 4 3 3 6 5 5 6 7 7 5 6 9 11 12 12 7 2 3 5 6 6 1 2 3 2 5 3 2 1 2 3 3 1 5 3 2 2 4 4 2 1 3 3 3 4 4 4 5 4 6 8 6 3 6 7 10 9 6 7 9 9 7 9 12 12 12 11 10 10 12 14 13 11
24 24 24 24 23 22 20 16 12 10 10 13 14 7 3 4 3 3 3 5 7 5 6 6 4 6 10 12 11 5 2 3 7 8 5 3 2 0 1 3 3 2 3 2 2 4 3 5 6 3 5 4 5 4 1 1 2 3 2 2 4 3 4 5 5 7 5 2 5 8 10 7 5 6 9 10 9 9 10 12 12 12 11 9 10 12 10 9
24 24 24 24 23 21 17 13 8 8 9 10 10 6 3 10 7 4 2 2 6 5 3 3 2 4 6 5 3 2 2 2 3 7 4 3 2 1 2 2 2 2 1 1 2 1 3 5 3 5 6 3 3 2 3 2 1 2 2 2 4 1 1 4 3 6 7 4 6 8 9 7 4 5 8 9 10 10 9 9 10 10 12 13 13 12 11 12
25 24 24 24 23 19 14 9 5 7 10 6 7 8 9 14 10 2 1 1 4 5 4 4 3 3 3 2 1 3 1 1 4 6 2 3 1 1 2 3 3 1 3 5 5 5 7 6 3 2 4 4 2 1 3 2 2 3 4 4 4 2 3 5 4 5 7 8 7 5 8 8 5 6 7 7 8 10 9 7 8 8 9 11 13 13 13 15
25 25 24 23 21 18 11 5 4 10 10 2 5 11 12 14 11 3 1 1 2 5 3 3 2 3 2 1 2 2 1 3 6 6 3 2 2 2 2 3 3 2 6 5 4 6 8 6 5 4 4 4 3 2 3 5 2 3 4 7 8 6 6 6 4 4 4 6 5 3 5 7 3 6 8 6 6 9 8 7 9 10 9 8 9 11 13 14
26 24 23 21 19 18 9 2 5 12 8 2 6 13 13 14 11 2 2 3 2 4 2 1 1 1 2 1 1 2 2 3 6 9 8 6 6 4 3 2 1 3 5 3 2 3 4 4 5 4 5 4 4 5 4 6 3 3 4 7 9 7 6 6 5 1 1 5 4 1 3 6 4 3 7 6 7 10 10 9 10 10 9 8 8 10 11 11
26 24 22 19 17 15 7 2 9 10 2 3 10 13 15 15 8 1 2 5 2 3 2 2 0 0 2 1 3 3 2 5 9 9 5 5 4 2 3 3 1 3 3 2 1 2 2 1 2 3 3 4 4 4 4 6 5 4 5 5 6 6 7 7 6 4 4 5 6 3 3 5 3 5 7 4 6 9 10 12 12 10 10 10 11 12 12 12
26 23 20 18 15 11 6 6 11 6 1 7 12 14 17 12 3 2 4 3 2 2 0 2 2 2 2 3 4 1 4 4 4 5 2 2 3 2 1 5 4 4 3 3 4 4 2 1 2 4 3 4 4 2 3 6 4 5 4 2 4 5 7 6 5 5 4 3 7 5 4 4 4 5 7 3 4 8 10 13 15 15 14 12 13 14 13 14
26 21 17 16 13 9 6 7 7 4 5 10 13 16 16 7 2 3 4 2 2 2 1 1 3 3 3 5 3 1 3 2 2 4 6 3 2 2 1 5 5 4 4 4 6 4 1 3 5 5 3 4 4 3 5 5 5 4 3 3 4 4 5 5 5 4 3 3 7 9 5 4 5 4 5 3 4 8 8 11 14 17 17 14 13 13 12 10
26 19 14 13 11 7 7 8 6 6 9 12 15 16 10 2 4 5 3 0 1 2 2 1 3 3 5 9 7 2 1 3 2 4 5 3 3 3 1 1 4 2 2 3 5 4 3 3 3 4 4 4 4 4 5 6 6 2 5 4 4 3 3 3 3 4 3 3 9 13 8 5 5 4 5 5 6 7 6 7 10 14 17 14 11 10 10 8
25 16 11 10 9 6 6 7 8 10 11 14 17 13 4 2 4 5 1 1 1 3 3 2 2 3 6 9 7 4 3 4 3 2 3 3 4 4 2 2 2 1 2 4 4 3 3 4 2 4 5 6 4 4 4 6 5 1 1 1 3 4 1 0 1 3 3 5 8 12 9 7 7 5 5 7 10 8 6 6 9 11 13 13 9 9 9 9
24 12 7 7 7 7 6 6 10 12 13 15 15 7 3 2 4 2 1 4 2 3 4 3 2 4 8 7 5 4 4 4 2 1 2 2 2 2 2 3 1 1 3 3 3 4 3 6 5 4 5 7 6 3 3 4 3 3 3 3 2 2 2 1 3 3 4 6 8 8 5 6 8 6 6 10 12 10 7 7 8 8 10 10 9 8 9 9
20 8 5 5 6 8 7 8 11 12 14 15 9 4 5 4 2 2 3 2 1 3 3 3 6 7 8 7 4 3 2 3 3 1 1 1 2 4 5 6 6 4 3 2 1 3 4 5 5 4 4 7 9 6 4 3 3 4 4 4 4 2 1 1 3 3 3 6 8 6 4 4 7 6 11 14 15 13 11 10 10 10 10 10 8 7 7 9
14 5 4 5 6 7 7 8 9 11 14 12 4 5 6 3 1 2 2 2 3 4 2 3 10 10 4 1 3 3 2 3 2 2 3 2 2 3 4 4 6 5 2 1 0 1 2 6 3 4 2 4 10 11 7 5 3 4 4 4 4 3 2 2 2 3 4 5 6 5 4 5 5 5 12 16 17 15 13 13 12 11 12 11 9 7 7 9
11 5 5 4 4 5 6 7 8 10 12 7 5 5 4 1 2 2 2 3 3 4 5 6 9 8 3 1 3 2 1 3 2 3 2 2 3 3 2 3 4 4 3 2 1 2 2 6 5 5 4 4 8 8 6 6 2 3 4 4 4 4 3 2 4 4 3 2 4 3 3 5 5 5 6 10 12 12 11 11 10 10 11 10 9 8 7 8
10 5 4 4 4 4 6 7 8 10 9 5 6 4 2 3 2 1 2 2 2 4 8 8 4 3 3 2 3 2 1 2 3 3 2 3 4 5 3 2 3 6 5 4 2 1 2 5 5 3 5 6 8 6 6 7 4 2 4 5 4 5 4 2 4 5 2 1 4 3 3 5 5 7 8 7 7 8 9 9 8 9 10 9 9 8 7 8
12 6 5 6 5 4 6 7 8 9 5 5 5 2 2 3 3 3 2 3 3 2 4 5 1 0 3 2 2 2 1 3 3 2 2 2 4 4 3 3 3 8 8 5 2 2 3 5 6 3 6 7 5 4 5 7 6 3 4 6 4 3 3 2 3 4 2 2 4 3 4 6 6 6 8 8 7 7 8 8 8 9 10 9 9 9 8 8
11 4 4 8 7 6 7 8 8 6 3 5 4 1 1 2 2 3 2 3 3 1 1 2 1 1 1 2 3 3 3 3 2 3 2 1 3 3 3 2 3 8 10 6 2 2 3 3 7 3 4 6 2 2 3 5 7 5 3 3 3 2 2 1 3 3 2 2 3 4 4 4 6 5 5 9 11 10 10 9 8 10 10 9 9 10 9 8
7 3 3 7 8 6 7 8 8 5 5 5 3 1 1 3 4 4 4 4 2 1 1 3 2 0 1 2 4 5 4 5 5 4 2 1 2 2 2 2 3 6 8 7 4 2 2 1 4 3 2 4 3 2 2 3 5 6 5 2 1 2 2 1 2 2 2 2 2 4 4 3 5 6 6 9 11 11 11 10 10 10 10 9 8 9 8 8
4 2 1 6 7 7 8 7 5 5 4 2 1 2 1 2 5 5 4 3 1 1 2 3 2 1 2 3 5 4 3 5 6 4 2 1 3 4 4 4 3 3 6 7 4 1 1 1 3 4 3 2 2 1 4 4 3 4 5 2 1 1 2 1 3 2 2 3 2 2 4 5 5 5 7 9 10 11 12 10 10 9 9 10 9 9 8 8
4 3 2 7 7 8 9 5 3 3 2 1 2 3 3 2 5 6 3 3 3 3 2 2 3 3 4 4 4 3 3 6 6 3 2 3 3 4 4 5 3 2 5 5 3 1 1 2 2 4 4 2 5 4 4 5 4 3 5 5 4 3 2 1 3 4 2 3 3 3 3 6 6 3 5 6 4 6 8 7 7 8 9 10 10 10 10 9
3 2 4 8 7 7 7 4 2 2 1 1 2 4 5 4 4 5 4 1 2 2 1 1 3 3 4 4 3 3 4 6 6 3 3 4 5 5 5 4 3 2 4 3 3 3 2 1 2 5 5 5 8 8 6 5 3 2 4 4 4 4 3 3 3 4 3 2 1 2 2 6 6 3 2 1 4 5 5 5 6 7 8 9 10 10 10 10
2 0 4 8 7 6 5 3 2 2 1 2 3 4 5 3 3 4 4 3 1 0 1 1 2 2 3 4 2 5 6 5 6 4 3 5 5 9 9 3 1 1 3 3 2 4 3 1 3 4 4 5 7 6 5 3 1 2 4 3 3 3 4 4 4 3 2 4 2 1 2 6 6 3 2 4 7 7 5 5 7 7 7 9 11 10 8 9
0 2 3 7 8 5 4 2 2 3 3 4 3 4 4 2 2 4 4 4 3 1 0 2 3 3 3 2 2 6 6 4 5 5 5 4 4 8 9 3 2 2 2 3 4 5 2 1 2 1 4 4 3 3 3 2 2 3 4 3 4 2 2 2 2 2 2 4 3 3 3 6 5 5 5 7 9 9 8 7 7 7 8 9 10 9 7 8
1 1 3 6 9 6 3 2 1 1 5 5 4 5 4 2 3 5 6 5 3 1 2 3 3 3 3 2 3 7 6 5 5 3 4 5 5 8 7 4 7 5 5 7 8 6 2 2 3 1 1 1 1 1 2 2 3 3 2 3 4 2 5 5 2 3 3 4 5 5 4 6 8 10 9 9 9 10 11 9 7 7 9 10 9 9 7 7
2 2 3 5 7 6 2 1 3 2 3 4 4 4 3 4 5 5 5 3 2 2 2 3 2 0 2 5 7 9 6 6 7 5 5 5 4 6 9 9 7 9 12 13 12 7 1 2 4 4 4 4 4 5 4 1 1 3 4 5 5 7 11 10 6 5 5 4 3 4 4 5 10 11 10 11 11 11 12 11 9 8 9 9 9 8 7 7
2 1 2 3 3 3 3 3 4 2 2 1 1 3 4 6 7 5 4 2 4 6 3 3 1 2 4 7 9 9 7 6 8 8 7 6 5 8 13 15 9 11 17 14 11 6 1 2 6 7 8 9 7 8 6 1 1 5 5 8 11 12 13 12 10 7 5 4 4 5 4 3 9 11 11 12 12 12 12 11 11 10 8 8 8 8 8 8
3 1 1 1 1 1 1 3 4 4 4 2 1 2 4 6 7 6 5 5 5 6 3 1 3 4 6 6 5 6 8 10 8 6 5 4 6 10 11 10 7 3 10 9 7 4 1 2 4 6 8 11 9 10 8 3 4 6 6 9 13 15 14 14 13 9 7 6 5 6 5 5 8 10 13 13 12 12 13 12 11 10 8 8 8 9 9 9
2 1 1 2 1 2 3 4 5 5 5 3 1 2 3 5 6 5 4 5 7 5 1 2 8 10 10 7 3 4 6 8 9 9 7 5 6 7 6 5 5 5 5 5 4 2 0 3 4 6 6 9 9 8 6 4 4 5 7 9 11 13 13 13 11 8 7 7 6 6 7 8 8 9 12 13 11 11 11 10 10 10 8 7 8 9 10 10
2 1 2 2 2 3 3 3 4 3 3 3 2 3 2 3 4 6 5 4 5 5 2 4 10 13 13 9 4 6 9 8 11 13 11 9 8 5 2 3 1 3 3 2 2 1 1 3 2 5 4 6 7 7 6 5 3 3 7 9 8 8 8 8 7 5 5 6 6 5 5 7 7 5 8 11 10 10 10 11 11 9 7 6 8 9 10 9
4 1 2 1 3 2 1 3 2 2 2 2 2 3 4 4 5 8 7 5 7 5 4 7 12 12 12 11 8 10 12 10 13 17 14 11 9 5 3 3 1 2 2 1 1 1 3 2 2 1 2 3 5 6 6 3 2 3 7 8 6 5 5 5 5 5 6 6 5 4 3 5 5 5 8 11 10 10 11 11 10 8 6 6 7 9 10 9
7 3 3 1 2 2 1 2 2 1 2 2 2 2 3 6 7 7 6 3 5 7 6 6 10 9 9 13 13 13 14 14 18 19 14 11 11 9 8 9 6 4 2 1 1 2 3 2 2 1 3 4 3 3 2 3 5 3 5 5 5 5 3 3 4 5 4 3 4 4 4 4 4 7 9 12 12 12 12 12 10 8 7 7 7 9 11 10
Wind_Direction
358 355 352 351 349 348 345 344 343 342 342 341 341 340 339 339 338 337 336 335 334 333 333 331 332 333 333 333 333 333 331 329 325 324 321 316 313 277 253 269 285 312 324 335 346 347 343 354 355 9 116 159 176 226 220 186 155 152 178 216 227 211 205 185 180 196 171 211 233 207 186 167 202 230 185 140 121 135 137 108 94 28 20 49 133 153 150 151
354 352 349 347 345 343 342 342 341 340 340 339 339 338 337 337 337 335 333 333 332 331 331 330 331 330 332 333 332 334 331 326 320 314 324 352 345 251 180 271 301 322 346 0 4 12 17 358 344 9 86 165 241 203 204 200 178 182 175 213 229 212 190 180 179 188 177 193 223 223 188 171 197 192 158 148 164 159 140 124 102 73 44 59 113 139 144 148
351 349 347 344 342 342 341 340 339 338 337 337 336 335 335 335 334 332 331 330 329 330 329 329 329 327 330 330 331 335 329 325 324 322 20 34 47 71 70 358 328 348 15 13 356 356 354 313 310 353 80 195 251 175 201 206 196 201 184 219 232 198 181 193 182 188 199 188 202 224 183 172 210 200 170 161 181 184 169 153 124 134 133 115 128 138 143 147
348 346 345 342 341 341 340 338 337 336 335 335 334 334 333 332 331 329 328 327 326 327 327 328 327 326 328 328 333 333 326 330 333 3 31 30 43 53 49 14 349 351 3 3 351 343 330 317 313 32 95 208 298 1 199 215 210 199 201 224 222 161 186 212 190 193 203 194 198 205 183 195 196 197 212 162 171 212 203 177 158 174 162 145 151 149 148 150
347 345 344 342 341 340 338 336 335 335 334 333 333 332 332 331 329 327 326 325 324 325 325 326 325 327 327 328 334 329 326 358 340 19 11 0 18 37 42 24 356 344 348 354 354 358 355 0 42 48 79 175 269 204 227 246 222 240 231 230 212 164 194 210 195 198 198 197 205 190 192 195 157 186 219 168 176 211 215 194 173 167 156 154 163 159 154 157
346 344 344 342 340 339 337 336 335 334 333 332 331 331 331 330 328 327 325 324 324 323 325 325 325 329 327 329 333 326 333 286 246 24 345 332 357 5 5 357 352 350 351 354 5 29 26 25 50 66 67 98 210 205 252 291 266 244 248 249 228 193 200 202 193 203 193 185 203 200 195 147 133 193 212 188 189 190 200 198 173 160 158 159 162 162 161 166
345 344 343 341 340 338 337 336 334 332 331 330 331 331 331 329 329 328 325 325 325 324 326 326 328 330 328 333 337 0 83 260 269 322 312 312 328 343 353 345 355 1 1 2 12 32 29 29 31 161 106 19 224 222 273 319 326 243 256 320 299 229 223 221 199 200 191 191 205 206 205 171 174 198 208 202 195 176 193 196 167 160 159 156 160 170 171 172
343 342 340 340 339 337 336 334 332 330 330 330 330 330 329 328 328 325 324 325 324 324 324 324 328 329 331 339 348 10 297 257 283 317 312 310 284 332 347 336 353 355 356 356 2 22 22 40 19 48 79 268 213 269 294 320 311 253 258 319 325 289 281 292 265 217 201 204 209 207 220 211 198 204 220 214 196 176 184 184 168 163 158 159 168 175 175 177
341 340 339 338 338 337 335 333 331 330 330 330 330 330 328 328 325 323 323 321 318 316 318 321 323 327 331 341 16 345 291 257 3 15 346 330 293 303 328 331 338 338 348 345 352 29 17 44 8 33 95 268 294 323 306 244 238 261 281 302 323 310 300 309 302 248 218 210 195 204 226 231 218 222 236 224 200 184 177 171 170 166 166 169 173 175 176 180
340 339 338 338 338 336 334 333 332 331 331 330 330 329 327 326 324 323 321 317 312 306 308 311 313 323 328 345 50 343 304 0 354 328 328 323 306 293 311 335 333 331 343 332 325 29 49 155 262 247 190 258 311 295 294 210 248 315 305 290 281 279 288 291 294 274 251 234 199 198 223 235 229 227 239 234 211 199 185 177 171 167 177 179 176 177 178 181
339 338 338 337 338 336 334 333 333 332 330 330 329 328 329 330 332 332 325 316 308 301 297 292 299 311 310 357 94 244 316 338 314 318 330 329 319 307 304 312 317 317 323 322 301 298 330 245 260 344 183 327 325 286 268 244 304 313 306 307 283 279 290 263 272 276 253 241 210 193 221 240 231 229 229 225 224 213 202 199 183 172 182 183 181 183 181 188
340 339 337 336 336 335 335 334 333 332 330 330 330 332 335 335 338 337 329 320 308 296 285 275 255 264 301 350 185 258 328 338 329 344 353 348 338 324 310 301 297 292 289 297 290 295 305 272 54 39 245 332 332 291 268 280 307 294 299 309 291 312 292 247 253 262 221 220 195 161 219 240 230 235 224 197 209 203 209 216 200 183 184 184 184 184 186 191
341 340 338 337 335 334 335 334 333 332 330 331 333 336 337 337 340 336 329 328 323 293 254 229 219 230 322 280 250 303 337 346 3 6 358 352 345 334 316 298 285 278 271 268 278 291 287 268 85 214 250 56 291 269 313 317 311 282 261 211 266 311 269 229 220 250 251 237 180 150 217 229 230 236 216 186 193 164 205 220 199 188 184 186 187 185 194 191
342 340 339 338 336 335 334 333 333 331 331 332 335 337 337 340 342 337 337 357 6 6 157 157 196 154 111 272 282 334 339 337 356 354 350 349 343 334 325 304 281 268 263 267 280 290 280 261 151 202 251 153 240 297 340 344 348 304 275 229 201 236 243 216 200 219 231 236 181 177 225 227 230 237 213 196 193 163 197 211 187 185 180 185 188 187 199 193
343 340 339 338 337 336 334 334 333 331 332 334 337 337 337 343 344 344 20 33 16 4 84 143 180 142 39 283 298 336 337 333 340 343 344 341 336 327 334 329 290 264 264 271 282 286 265 202 125 114 264 256 214 343 342 340 351 355 266 268 205 217 239 259 233 207 215 241 185 188 228 236 231 237 214 194 198 180 195 200 185 187 182 185 188 189 198 195
343 341 340 338 337 337 335 335 334 332 334 336 339 336 335 345 346 0 52 31 8 2 58 133 185 161 18 286 312 341 345 327 330 337 339 336 328 306 320 329 304 257 260 274 279 278 240 162 162 156 224 273 138 91 8 344 325 341 222 235 248 234 229 265 270 212 203 239 235 210 229 239 232 232 214 197 201 195 200 198 185 187 185 187 189 190 197 197
343 340 341 339 337 337 336 336 335 336 338 340 342 336 335 345 334 341 54 13 0 16 91 128 168 144 288 285 325 341 326 315 321 328 333 338 333 317 316 324 344 354 317 299 289 281 133 144 187 186 38 0 144 109 57 278 272 306 287 255 304 283 198 239 287 248 175 186 232 243 239 240 237 213 207 207 201 198 210 205 185 190 191 187 191 194 196 196
342 340 340 338 336 335 336 337 337 340 340 344 346 337 338 347 303 187 6 350 346 77 108 140 136 97 291 306 331 310 303 308 315 318 323 345 353 351 338 297 348 354 7 0 337 57 23 336 63 73 352 333 156 134 176 230 211 101 22 306 315 305 205 208 259 284 60 171 218 242 248 244 244 235 220 213 196 194 213 209 184 190 196 191 190 194 197 195
341 340 340 337 336 335 336 336 339 343 342 350 355 349 360 12 96 166 332 347 355 95 7 305 91 61 284 297 303 300 303 303 309 304 306 358 358 357 6 249 347 4 38 21 329 11 97 14 50 189 250 221 187 180 194 175 86 89 77 164 271 303 248 237 251 276 13 318 231 234 250 248 239 243 246 234 207 197 215 213 192 188 193 198 193 192 196 196
339 340 339 337 336 334 335 337 342 348 347 357 4 8 21 19 22 348 328 338 318 213 282 274 205 275 281 289 297 314 319 308 306 275 287 341 342 351 7 31 25 33 60 63 291 339 84 102 245 225 241 195 200 232 210 146 26 334 314 271 281 291 273 278 281 302 4 339 253 240 257 261 245 239 242 241 222 209 217 213 209 199 191 198 196 194 193 196
340 340 338 337 336 334 336 338 344 352 354 6 17 29 43 13 356 340 333 315 260 234 247 250 240 254 264 275 294 322 340 339 314 293 304 331 19 12 334 33 41 5 302 250 271 343 50 266 248 206 108 158 211 238 232 346 324 302 285 282 286 270 268 277 276 293 327 322 274 271 275 278 267 249 244 240 225 217 216 209 211 209 203 203 201 201 194 195
341 339 338 337 335 334 336 341 348 356 1 18 33 62 106 14 348 277 315 317 290 254 238 260 261 259 267 274 284 302 25 343 317 309 321 0 49 246 308 63 78 269 306 14 357 351 357 273 258 181 162 182 212 229 169 152 263 274 281 292 279 280 294 278 265 286 299 281 275 285 285 277 264 257 252 241 229 227 219 208 207 201 201 207 210 212 200 198
340 338 338 336 333 334 337 345 354 3 6 17 35 60 34 6 356 270 264 297 292 289 254 255 215 253 287 292 252 143 49 5 308 301 317 41 9 237 142 106 171 227 355 104 173 285 278 258 229 170 172 178 254 250 120 136 220 237 232 262 266 295 0 270 285 314 310 291 268 284 292 274 243 263 268 248 235 239 231 217 216 204 198 202 205 210 204 203
339 338 337 334 333 335 341 348 3 13 1 8 35 26 5 357 355 317 265 241 287 292 251 223 201 220 261 299 165 133 43 215 209 275 299 87 10 252 178 183 164 156 241 210 188 214 245 235 198 200 177 162 234 293 114 167 255 242 209 210 241 224 207 240 295 330 319 301 271 269 293 277 219 223 259 263 248 247 242 227 231 229 217 214 207 203 202 203
339 338 336 335 334 336 346 357 10 4 352 19 37 4 358 350 345 347 38 59 291 289 256 224 227 213 215 241 211 192 255 231 216 245 248 186 217 223 251 211 151 208 234 216 196 237 261 235 198 248 239 171 196 249 174 178 227 279 229 214 220 216 217 241 294 345 339 298 268 196 258 274 237 210 229 246 252 245 241 228 227 230 225 224 220 211 208 207
339 337 337 336 334 339 355 32 349 352 350 47 10 350 351 345 339 355 78 48 317 291 312 292 190 236 264 205 217 285 320 259 260 268 258 236 220 201 240 258 113 226 217 186 194 248 268 223 175 200 223 194 197 235 215 168 172 266 238 212 214 209 214 234 253 269 210 257 269 146 239 278 324 282 236 233 248 240 231 225 225 229 224 217 221 221 221 220
338 337 338 336 337 343 353 323 332 345 0 355 346 342 343 339 337 43 63 36 345 287 301 284 204 20 281 302 358 2 292 290 308 295 245 209 224 178 208 245 301 243 201 141 275 257 223 236 98 139 178 199 206 238 219 159 153 246 236 195 196 199 207 221 217 205 214 257 290 301 258 275 301 280 262 248 263 256 236 227 226 225 221 216 220 220 221 225
338 338 338 336 337 335 318 306 324 338 353 333 337 336 336 337 338 91 78 59 321 290 235 280 298 303 287 325 347 302 257 301 324 296 290 197 224 101 230 236 206 232 218 159 245 253 178 154 180 158 160 206 212 220 185 153 170 244 252 211 209 207 211 213 201 214 223 245 279 264 216 252 262 257 267 252 245 259 242 228 226 223 219 213 218 220 218 223
339 340 338 334 334 331 312 303 310 326 336 335 336 332 332 343 69 64 76 95 303 304 184 292 316 303 315 328 320 214 279 311 185 271 322 315 251 84 242 223 173 217 230 188 226 243 211 214 188 164 177 213 208 195 169 165 213 250 348 332 274 238 224 216 192 214 222 195 252 252 197 220 267 251 251 235 221 240 238 232 229 226 224 214 214 221 220 222
340 340 335 328 330 337 324 313 320 340 339 336 334 330 333 36 82 52 44 29 311 300 269 353 337 325 353 340 332 13 309 281 258 301 327 318 330 17 276 198 113 169 248 248 240 237 245 242 184 178 212 191 177 201 182 187 224 304 10 341 323 309 227 219 192 189 218 220 245 249 217 201 256 245 219 224 226 219 217 233 235 232 232 222 210 217 218 211
341 338 327 319 321 324 316 321 339 341 334 331 332 336 356 78 63 75 71 285 287 303 319 345 318 330 357 342 324 331 322 292 298 322 322 320 341 357 355 0 29 27 301 284 270 266 252 237 223 227 213 174 169 222 213 211 229 282 7 26 3 329 322 101 229 173 206 242 242 246 228 204 235 239 217 236 241 229 215 228 240 242 243 234 213 204 209 206
343 331 306 303 307 307 302 318 331 328 322 324 332 353 87 51 20 83 281 315 319 304 317 308 291 324 335 330 301 290 305 298 289 242 250 288 304 289 230 203 218 334 291 260 292 318 265 230 229 226 206 180 177 221 228 224 221 159 155 127 94 312 10 46 242 189 207 244 245 243 222 216 241 234 220 244 251 246 235 231 242 252 255 252 231 206 200 197
345 324 297 295 300 310 314 321 322 318 317 323 337 40 85 67 28 246 279 317 271 280 309 302 303 313 321 325 303 279 279 274 292 321 275 298 307 274 242 212 190 201 246 244 358 334 301 273 237 207 220 189 180 202 213 200 195 167 160 146 147 164 116 222 243 216 219 250 256 246 219 242 268 232 208 229 247 250 250 246 246 252 257 261 252 223 205 198
350 328 311 302 308 325 332 328 320 317 323 332 18 66 60 68 267 279 294 269 262 293 324 315 310 312 314 299 285 299 306 276 299 339 316 326 322 282 264 240 197 188 201 104 25 229 271 295 244 186 227 196 193 207 192 159 175 181 161 158 173 178 186 210 210 206 223 254 257 239 210 221 246 223 198 210 230 239 246 250 248 253 257 259 259 235 210 207
355 336 326 323 343 351 341 331 324 323 331 354 62 64 68 136 262 298 271 255 274 308 311 308 309 310 312 260 275 294 264 275 329 346 293 249 251 250 254 252 194 163 126 134 224 180 215 273 252 220 241 215 212 214 168 144 185 199 158 157 193 201 211 245 231 217 211 255 256 214 203 217 230 262 228 213 226 228 235 248 249 255 259 258 259 242 211 207
359 359 359 11 21 2 342 335 328 326 335 34 69 58 111 198 226 190 224 271 307 309 310 314 309 291 308 305 284 300 238 271 312 326 282 236 243 233 221 252 187 166 160 161 202 174 191 269 275 276 269 227 218 213 161 163 189 187 171 187 206 190 179 214 251 251 213 248 271 228 221 247 253 274 264 235 236 239 238 244 239 244 254 257 260 252 222 204
3 25 45 31 21 359 345 338 329 330 354 74 77 75 213 220 194 186 228 294 307 321 327 323 336 202 315 314 286 302 334 293 275 271 279 262 258 225 203 255 193 184 191 174 198 215 194 269 283 273 269 256 225 202 191 192 180 134 170 194 194 175 172 180 240 260 237 244 277 246 218 230 230 254 256 232 237 255 250 244 241 243 249 253 257 257 239 213
357 23 49 25 11 1 351 335 328 339 49 74 41 355 224 249 210 205 257 301 306 16 13 285 244 129 314 309 296 307 316 298 271 267 271 228 245 215 184 245 208 202 207 182 194 240 177 264 284 258 258 293 323 150 234 240 207 200 220 188 150 159 189 222 220 221 226 237 268 271 255 230 221 237 233 218 228 244 248 248 253 252 251 251 253 257 248 226
2 26 32 7 360 2 347 325 331 6 70 68 17 304 238 265 253 238 261 292 304 54 253 245 223 240 268 262 285 304 300 282 290 290 259 182 244 232 178 227 229 220 206 171 171 229 146 214 289 297 275 308 349 116 199 257 224 225 263 323 71 153 146 190 229 199 202 220 240 275 288 268 234 222 201 204 216 228 238 244 249 250 253 253 247 248 242 223
25 49 352 346 350 349 336 325 351 37 64 75 223 245 266 274 273 266 248 232 207 180 226 222 218 264 273 271 278 286 273 274 290 285 222 219 267 253 209 193 222 226 182 172 185 218 112 165 256 297 312 314 304 206 183 199 193 201 227 232 147 139 105 106 265 248 191 186 187 234 271 272 251 216 206 212 210 213 221 231 245 255 260 262 257 249 235 218
31 61 322 336 340 333 341 1 33 42 54 57 232 256 294 298 290 291 271 200 205 224 217 206 225 250 273 285 282 278 282 288 287 264 231 242 233 249 235 186 188 180 143 167 211 192 189 192 212 284 304 271 246 233 185 186 189 189 205 196 181 180 138 138 266 274 237 185 180 189 241 267 259 216 205 219 230 234 223 215 240 260 263 265 264 256 242 222
43 77 323 344 344 332 0 53 68 44 94 322 297 272 283 298 294 296 313 331 210 235 356 241 230 240 261 264 257 278 295 295 283 259 242 244 218 238 251 174 174 200 132 149 213 166 145 170 233 265 259 247 253 250 231 223 232 263 244 206 160 151 144 156 222 259 273 272 222 165 248 267 262 237 197 277 323 294 247 213 241 263 268 271 271 263 250 233
63 286 332 2 354 345 30 66 352 13 162 271 293 274 272 283 284 287 308 328 316 329 14 286 239 218 237 240 254 292 301 290 264 245 258 270 242 243 245 187 134 241 138 143 189 145 123 164 235 276 287 272 267 264 266 271 214 243 256 219 149 162 178 184 208 212 240 271 278 58 280 266 269 289 335 327 313 301 280 257 261 270 275 279 278 271 254 240
41 262 311 5 358 1 62 81 328 332 312 307 305 293 294 279 272 291 299 302 303 311 234 268 247 210 243 257 242 277 295 289 258 243 250 270 258 260 260 203 178 246 182 187 169 147 162 180 172 308 332 323 332 2 343 328 174 207 240 194 161 201 258 278 250 185 205 240 196 147 235 254 276 308 325 323 316 311 296 268 250 255 267 274 278 279 265 245
5 297 282 351 12 32 92 128 122 316 319 331 319 302 313 288 263 283 288 275 260 221 221 271 261 203 244 282 256 269 272 246 248 250 246 264 278 288 294 219 193 206 222 202 160 141 187 175 136 143 170 165 139 193 233 219 194 218 239 187 155 189 239 255 239 180 211 232 179 168 229 277 308 315 320 321 313 307 300 286 263 250 257 263 268 276 272 252
36 34 313 335 14 43 75 88 89 82 322 337 321 306 332 328 297 294 293 274 301 338 252 256 299 246 288 324 318 301 281 232 235 251 268 278 280 294 305 290 234 206 211 196 157 132 156 200 196 204 210 214 206 212 219 163 200 232 208 195 202 212 216 220 218 199 199 205 204 215 238 292 305 304 309 309 301 298 296 290 279 260 251 256 263 274 272 251
57 58 4 344 344 15 20 14 52 44 317 330 318 310 336 333 321 321 312 297 343 343 302 228 38 15 326 335 329 306 300 285 255 252 271 275 278 297 302 303 283 210 200 183 152 139 142 224 218 217 235 249 249 251 259 277 242 243 208 192 212 227 221 214 223 222 181 176 252 249 199 240 285 288 290 290 289 291 289 281 277 272 266 270 280 288 278 256
53 113 105 40 313 328 352 334 354 345 306 247 213 316 336 337 340 342 320 310 330 336 323 298 332 325 315 326 320 292 305 312 293 281 291 270 291 315 310 314 332 181 173 159 152 162 174 241 214 200 239 257 257 260 261 239 237 247 229 209 216 227 224 212 219 216 168 169 232 238 216 240 273 283 283 282 285 288 285 279 276 277 280 285 295 300 288 264
57 65 322 18 341 237 241 291 322 331 308 269 272 336 338 327 330 329 305 310 321 314 301 309 307 313 319 316 296 276 298 313 306 305 317 302 297 311 302 307 353 41 99 137 184 195 221 257 212 186 241 269 267 268 261 226 240 254 248 238 225 223 221 216 222 210 178 189 215 225 251 267 263 267 280 290 296 294 287 282 278 275 275 282 297 303 289 266
56 15 317 352 309 263 253 294 323 330 316 323 324 311 300 289 312 324 304 270 286 299 314 306 304 312 315 307 278 254 260 272 281 284 297 309 300 291 257 247 297 18 48 113 221 236 205 260 226 172 225 268 258 263 256 217 216 270 277 272 251 230 223 228 237 207 185 222 225 212 254 274 263 270 293 298 298 298 296 290 283 273 262 277 302 302 286 267
29 347 329 335 299 298 278 294 332 352 319 335 339 317 315 303 316 329 310 233 220 255 286 307 310 314 310 303 289 270 268 271 273 273 274 272 262 247 250 252 248 15 18 92 325 255 203 265 325 148 250 262 228 246 260 265 2 312 291 302 295 252 224 228 239 216 205 218 212 207 251 268 278 315 317 304 304 307 299 288 283 279 270 278 295 294 286 274
17 4 24 44 289 329 354 305 341 16 303 278 290 314 296 288 306 327 319 279 231 239 245 287 307 311 309 304 299 296 299 297 286 282 277 260 243 233 241 253 260 286 288 211 303 229 198 257 311 290 283 283 277 271 260 48 28 310 273 298 295 273 271 282 275 265 252 211 182 210 236 247 291 320 317 311 315 315 302 289 287 292 293 289 285 283 287 283